STARLINK-11378, 62020

Orbit data source: Space-Track

STARLINK-11378, 62020 is a payload satellite owned by SpaceX/Seattle (US) in LEO that was launched on Mon, 18 Nov 2024 UTC via an FALCON 9 launch vehicle from the Air Force Western Test Range (AFWTR). Payloads include a variety of satellites, spacecraft, and rockets equipped with specific instruments for various scientific and technological missions. These include communications satellites like Starlink; space stations such as the ISS; scientific satellites like the Hubble; Earth observation satellites from companies like Planet Labs, Umbra, and HawkEye 360; GPS; miniature CubeSats for education and research; and military/defense satellites.

Loading next visibility...
STARLINK-11378 details
Identifier
62020, 2024-213N
Orbit
LEO
Last TLE update8 hours ago
Origin
Flag of USSpaceX/Seattle (US)
ManufacturerSpaceX/Seattle
MissionOperational spacecraft
Bus & MotorSTARLINK V2M, Unknown motor
Mass730 kg wet, ~700 kg dry
Launch date (UTC)
2024-11-18 (1 month ago)
Launch vehicle
FALCON 9
Launch site
Air Force Western Test Range (AFWTR)
Object type
Payload
Rocket body
Debris
Shape & HBRUnknown
Radar Cross SectionLarge (>1 m²)

Expand to show TLE details & history

TLE from 8 hours ago
0 STARLINK-11378
1 62020U 24213N   24361.13975065  .00004280  00000-0  30133-4 0  9992
2 62020  53.1544  45.5327 0001019  82.4562 277.6574 15.76726636  6944
Epoch: 2024-12-26T03:21Z
Definitive object data (Epoch: 2024-12-26T03:21:14.456Z)
Latitude-0.00005°
Longitude-99.901°
Altitude340.548 km
Speed7.706 km/s
True Right ascension03h 02m 07s
True Declination0° 00' 00"
Sunlit
Object was in full shadow at TLE epoch
Visualization TLE readout
Latitude-9.89166°
Longitude-108.93521°
Altitude342.506 km
Speed7.704 km/s
Apparent Right ascension00h 41m 38s
Apparent Declination-27° 49' 35"
Sunlit
Object is in full shadow
Visualization observer readout
Local Sidereal Time10:15:45
Azimuth280.593° WNW
Elevation-57.67°
Doppler factor1
Orbital elements
Apogee altitude340.669 km
Perigee altitude339.3 km
Semi-major axis6,718.122 km
Eccentricity0.0001019
Inclination53.1544°
RAAN45.5327°
Arg. of periapsis82.4562°
True anomaly277.64583°
Mean anomaly277.6574°
Eccentric anomaly277.65161°
Mean motion3.94159 °/min
BSTAR0.000030133
Orbital period91.33 mins
Loading maneuver chart data...
Loading historical data...
Loading historical data...
Loading historical data...
Loading historical data...
Loading historical data...
Loading historical data...
Loading historical data...

STARLINK-11378 Visibility forecast

Observer location: undefined°, undefined

Span
Click to sort rows by Start time (UTC) header in descending order
Start Az.
Max El. time (UTC)
Max El. Az.
Max El.
End time (UTC)
End Az.
4 mins2024-12-26 12:59:29.566Z306.934° NW2024-12-26 13:01:29.566Z147.914° SSE41.764°2024-12-26 13:03:29.566Z134.057° SE
|